Weather Roundup
Issued by NWS

Home | Current Version | Previous Version | Graphics & Text | Print | Product List | Glossary Off
Versions: 1 2 3 4 5 6 7 8 9 10 11 12 13 14 15 16 17 18 19 20 21 22 23 24 25 26 27 28 29 30 31 32 33 34 35 36 37 38 39 40 41 42 43 44 45 46 47 48 49 50

000
NZUS93 KARX 040459
HRRWXR

CURRENT HOURLY OBSERVATIONS ACROSS
MUCH OF THE UPPER MISSISSIPPI VALLEY
NATIONAL WEATHER SERVICE LA CROSSE WI
1100 PM CST TUE MAR 03 2015


...SOUTHEAST MINNESOTA...


CITY           SKY/WX    TMP DP  RH WIND       PRES   REMARKS
ROCHESTER      CLEAR      7   1  76 NW18      29.96R WCI -12
ROCHESTER/MAYO CLOUDY    10   2  71 W20G25    29.96R WCI  -9
WINONA         CLEAR     14   5  67 NW14      29.98R WCI  -1
AUSTIN         CLEAR      9   1  72 NW15G22   29.99R WCI  -8
ALBERT LEA     CLEAR      9   1  72 NW15G21   30.01R WCI  -8
DODGE CENTER   PTCLDY     9   1  72 NW16      29.96R WCI  -9
PRESTON        CLEAR      8   2  75 NW17G26   29.96R WCI -10
OWATONNA       CLEAR      9   0  66 NW15G21   30.00R WCI  -8
FARIBAULT      CLEAR      9   1  72 W13       30.01R WCI  -7
$$

...ELSEWHERE IN MINNESOTA...


CITY           SKY/WX    TMP DP  RH WIND       PRES   REMARKS
MINNEAPOLIS    PTCLDY     8  -2  63 NW16G24   30.00R WCI -10
INTNL FALLS    MOCLDY    -3 -10  72 W9        29.85R WCI -19
DULUTH         MOCLDY     3  -7  63 W18G25    29.82R WCI -17
RED WING       CLEAR     10   0  61 NW9       29.98R WCI  -2
REDWOOD FALLS  CLEAR      7  -4  60 NW14G24   30.06R WCI -10
MANKATO        CLEAR      9   0  66 NW16G22   30.03R WCI  -9
FAIRMONT       CLEAR      9   1  72 NW13G18   30.04R WCI  -7
$$

...SOUTHWEST WISCONSIN...


CITY           SKY/WX    TMP DP  RH WIND       PRES   REMARKS
LA CROSSE      CLEAR     16   6  65 NW17G25   29.95R WCI   0
PRAIRIE DU CHI CLEAR     16   7  67 W14G23    29.96R WCI   1
BOSCOBEL       PTCLDY    19  10  68 W8        29.95R WCI   9
LONE ROCK      PTCLDY    24  13  62 W14       29.89R WCI  12
PLATTEVILLE    MOCLDY    19  14  81 W14       29.90R WCI   5
FORT MC COY    CLEAR     18  10  71 W7        29.91R WCI   8
VIROQUA        FAIR      15   8  75 W16G25    29.88R WCI  -1
WIS DELLS      NOT AVBL
$$

...ELSEWHERE IN WISCONSIN...


CITY           SKY/WX    TMP DP  RH WIND       PRES   REMARKS
MILWAUKEE      CLOUDY    30  22  72 W6        29.82S WCI  24
MADISON        MOCLDY    29  17  61 W10G20    29.84R WCI  20
GREEN BAY      CLEAR     26  16  65 W18G25    29.77R WCI  13
EAU CLAIRE     NOT AVBL
BLACK RVR FLS  FAIR      19   6  58 W15G25    29.89R WCI   4
MEDFORD        CLEAR     14   4  63 W14G22    29.79R WCI  -1
WAUSAU         CLEAR     17   6  62 W17       29.78R WCI   1
WIS RAPIDS     CLEAR     19   7  59 NW14G23   29.85R WCI   6
MARSHFIELD     CLEAR     16   6  65 W20G26    29.82R WCI  -1
RICE LAKE      CLEAR     11   1  64 W14       29.91R WCI  -5
$$

...NORTHEAST IOWA...


CITY           SKY/WX    TMP DP  RH WIND       PRES   REMARKS
DECORAH        CLOUDY    10   5  79 NW12G22   29.95R WCI  -4
MASON CITY     CLEAR      9   1  70 NW20      30.04R WCI -10
CHARLES CITY   CLEAR     10   1  67 NW20G26   30.00R WCI  -8
OELWEIN        CLEAR     12   5  73 NW18G25   29.99R WCI  -5
$$

...ELSEWHERE IN IOWA...


CITY           SKY/WX    TMP DP  RH WIND       PRES   REMARKS
DES MOINES     PTCLDY    17   8  67 NW15G22   30.07R WCI   2
IOWA CITY      MOCLDY    19  10  68 NW21G28   30.03R WCI   3
FORT DODGE     CLEAR     10   1  67 NW7       30.09R WCI   0
$$

...NORTHERN ILLINOIS...


CITY           SKY/WX    TMP DP  RH WIND       PRES   REMARKS
CHICAGO-OHARE  CLOUDY    30  23  75 W8        29.85S WCI  22
CHICAGO-MIDWAY CLOUDY    33  24  69 W9        29.85F WCI  25
MOLINE         MOCLDY    25  16  68 NW21      29.96R WCI  11
ROCKFORD       CLOUDY    30  22  72 NW17      29.89R WCI  18
PEORIA         CLOUDY    34  26  72 NW8       29.92R WCI  27
$$

NOTE: "FAIR" INDICATES FEW OR NO CLOUDS BELOW 12,000 FEET WITH NO
SIGNIFICANT WEATHER AND/OR OBSTRUCTIONS TO VISIBILITY. WIND
SPEEDS ARE IN MILES-PER-HOUR.



USA.gov is the U.S. government's official web portal to all federal, state and local government web resources and services.